Weather History for Dallas Addison, TX

Change the Weather History Date:

Saturday, October 20, 2012

  Actual Average Record
Temperature  
Mean Temperature 72 °F -  
Max Temperature 86 °F 74 °F 91 °F (2004)
Min Temperature 57 °F 56 °F 46 °F (2006)
Cooling Degree Days 6    
Growing Degree Days 22 (Base 50)    
Moisture  
Dew Point 47 °F    
Average Humidity 47    
Maximum Humidity 69    
Minimum Humidity 32    
Precipitation  
Precipitation 0.00 in - - ()
Sea Level Pressure  
Sea Level Pressure 29.84 in    
Wind  
Wind Speed 8 mph (South)    
Max Wind Speed 20 mph    
Max Gust Speed 33 mph    
Visibility 11 miles    
Events      
Averages and records for this station are not official NWS values.
T = Trace of Precipitation, MM = Missing Value Source: NWS Daily Summary

Daily Weather History Graph

Daily Weather History Graph

Search for Another Location

Airport:

Trip Planner

Search our weather history database for the weather conditions in past years. The results will help you decide how hot, cold, wet, or windy it might be!

Date:

Astronomy

Oct. 20, 2012 Rise Set
Actual Time 7:35 AM CDT 6:47 PM CDT
Civil Twilight 7:10 AM CDT 7:12 PM CDT
Nautical Twilight 6:41 AM CDT 7:41 PM CDT
Astronomical Twilight 6:13 AM CDT 8:10 PM CDT
Moon 1:03 PM CDT (10/20) 11:43 PM CDT (10/20)
Length of Visible Light 12h 01m
Length of Day
11h 11m
Waxing Crescent, 34% of the Moon is Illuminated
Oct 20
Waxing Crescent
Oct 21
First Quarter
Oct 29
Full
Nov 6
Last Quarter
Nov 13
New

Hourly Weather History & Observations

Time (CDT) Temp. Heat Index Dew Point Humidity Pressure Visibility Wind Dir Wind Speed Gust Speed Precip Events Conditions
12:15 AM 60.8 °F - 32.0 °F 34% 29.91 in 10.0 mi South 4.6 mph - N/A   Clear
12:35 AM 60.8 °F - 32.0 °F 34% 29.90 in 10.0 mi South 5.8 mph - N/A   Clear
12:55 AM 60.8 °F - 32.0 °F 34% 29.90 in 10.0 mi South 6.9 mph - N/A   Clear
1:15 AM 60.8 °F - 32.0 °F 34% 29.89 in 10.0 mi South 6.9 mph - N/A   Clear
1:35 AM 62.6 °F - 32.0 °F 32% 29.89 in 10.0 mi South 5.8 mph - N/A   Clear
1:55 AM 59.0 °F - 33.8 °F 39% 29.89 in 10.0 mi South 6.9 mph - N/A   Clear
2:15 AM 60.8 °F - 32.0 °F 34% 29.89 in 10.0 mi South 4.6 mph - N/A   Clear
2:35 AM 60.8 °F - 33.8 °F 36% 29.89 in 10.0 mi SSE 6.9 mph - N/A   Clear
2:55 AM 59.0 °F - 33.8 °F 39% 29.89 in 10.0 mi South 8.1 mph - N/A   Clear
3:15 AM 59.0 °F - 33.8 °F 39% 29.89 in 10.0 mi SSE 6.9 mph - N/A   Clear
3:35 AM 57.2 °F - 35.6 °F 44% 29.89 in 10.0 mi South 3.5 mph - N/A   Clear
3:55 AM 57.2 °F - 35.6 °F 44% 29.88 in 10.0 mi South 4.6 mph - N/A   Clear
4:15 AM 60.8 °F - 33.8 °F 36% 29.87 in 10.0 mi South 6.9 mph - N/A   Clear
4:35 AM 62.6 °F - 33.8 °F 34% 29.86 in 10.0 mi South 4.6 mph - N/A   Clear
4:55 AM 62.6 °F - 33.8 °F 34% 29.86 in 10.0 mi SSW 4.6 mph - N/A   Clear
5:15 AM 60.8 °F - 33.8 °F 36% 29.87 in 10.0 mi South 4.6 mph - N/A   Clear
5:35 AM 60.8 °F - 35.6 °F 39% 29.87 in 10.0 mi Calm Calm - N/A   Clear
5:51 AM 57.2 °F - 37.4 °F 48% 29.88 in 25.0 mi South 4.6 mph - N/A   Clear
5:55 AM 57.2 °F - 35.6 °F 44% 29.87 in 10.0 mi South 3.5 mph - N/A   Clear
6:51 AM 60.8 °F - 37.4 °F 42% 29.88 in 10.0 mi South 6.9 mph - N/A   Clear
7:54 AM 57.2 °F - 41.0 °F 55% 29.88 in 20.0 mi SE 3.5 mph - N/A   Clear
8:53 AM 62.6 °F - 42.8 °F 48% 29.89 in 15.0 mi SE 4.6 mph - N/A   Clear
9:47 AM 66.2 °F - 44.6 °F 46% 29.89 in 15.0 mi South 9.2 mph - N/A   Clear
10:51 AM 73.4 °F - 57.2 °F 57% 29.89 in 13.0 mi SSW 19.6 mph 33.4 mph N/A   Clear
12:47 PM 78.8 °F - 60.8 °F 54% 29.84 in 13.0 mi South 15.0 mph 25.3 mph N/A   Clear
1:51 PM 82.4 °F 82.9 °F 60.8 °F 48% 29.79 in 13.0 mi South 18.4 mph 24.2 mph N/A   Clear
2:47 PM 84.2 °F 85.0 °F 62.6 °F 48% 29.76 in 13.0 mi South 17.3 mph 24.2 mph N/A   Partly Cloudy
3:47 PM 86.0 °F 86.6 °F 62.6 °F 45% 29.74 in 10.0 mi South 15.0 mph 25.3 mph N/A   Partly Cloudy
4:47 PM 84.2 °F 85.0 °F 62.6 °F 48% 29.74 in 13.0 mi South 16.1 mph 28.8 mph N/A   Scattered Clouds
5:47 PM 84.2 °F 85.0 °F 62.6 °F 48% 29.74 in 13.0 mi South 15.0 mph 26.5 mph N/A   Clear
6:47 PM 82.4 °F 83.4 °F 62.6 °F 51% 29.74 in 10.0 mi South 17.3 mph 24.2 mph N/A   Clear
7:47 PM 80.6 °F 82.3 °F 64.4 °F 58% 29.75 in 13.0 mi South 15.0 mph 21.9 mph N/A   Partly Cloudy
8:47 PM 78.8 °F - 64.4 °F 61% 29.75 in 13.0 mi SSE 18.4 mph 25.3 mph N/A   Clear
9:47 PM 77.0 °F - 64.4 °F 65% 29.77 in 10.0 mi SSE 16.1 mph 25.3 mph N/A   Clear
10:15 PM 77.0 °F - 64.4 °F 65% 29.78 in 10.0 mi South 16.1 mph 21.9 mph N/A   Clear
10:35 PM 77.0 °F - 64.4 °F 65% 29.78 in 10.0 mi South 13.8 mph 23.0 mph N/A   Clear
10:55 PM 77.0 °F - 64.4 °F 65% 29.78 in 10.0 mi South 12.7 mph 21.9 mph N/A   Clear
11:15 PM 77.0 °F - 64.4 °F 65% 29.78 in 10.0 mi South 16.1 mph 23.0 mph N/A   Clear
11:35 PM 77.0 °F - 66.2 °F 69% 29.78 in 10.0 mi South 11.5 mph 24.2 mph N/A   Clear
11:55 PM 77.0 °F - 66.2 °F 69% 29.78 in 10.0 mi South 12.7 mph 20.7 mph N/A   Clear